Location: Gälforsberget
(66.6500°N, 22.4167°E)
Time: 17:45:55
(UTC+00:00)

Cosmos 990 Rocket - Pass Details

Date: 11 April 2026
Orbit: 743 x 763 km, 74.0° (Epoch: 16 May)

Event Time Altitude Azimuth Distance (km) Brightness Sun altitude
Rises 19:20:29 0° 231° (SW) 3,194 7.3 -7.3°
Reaches altitude 10° 19:22:51 10° 233° (SW) 2,269 6.6 -7.5°
Maximum altitude 19:28:00 73° 318° (NW) 785 4.3 -7.9°
Drops below altitude 10° 19:33:09 10° 45° (NE) 2,272 6.5 -8.2°
Sets 19:35:31 0° 47° (NE) 3,197 7.2 -8.4°
